Vorticity
13 15 9 7 9 6 3 2 -3 9 11 3 7 9 6 4 6 5 1 7 14 11 13 14 15 7 14 14 12 15 10 7 6 5 -31 9 19 2 -13 1 6 8 5
0 5 13 13 9 12 10 4 9 11 5 -0 3 -4 -3 5 6 8 12 4 5 11 14 12 10 8 5 9 18 12 11 18 14 67 4 3 26 22 32 18 -9 10 4
-13 -5 2 9 -1 -3 6 12 6 3 1 3 12 17 18 21 19 15 12 10 8 7 9 9 7 6 7 14 11 14 13 8 38 76 4 1 15 25 18 1 -3 7 3
12 14 9 1 5 17 6 10 13 12 9 8 10 1 -1 8 13 18 16 17 11 8 7 10 13 11 14 20 10 11 10 3 9 -18 3 -7 -5 5 -4 20 7 4 -1
2 31 37 33 20 17 23 20 15 10 8 11 11 10 10 11 2 12 11 10 11 5 7 8 5 5 4 21 10 3 6 12 11 1 1 -0 5 26 -3 5 7 13 -0
6 9 8 6 7 9 9 10 8 10 17 18 22 16 17 8 9 4 -0 4 2 4 10 8 6 5 6 15 2 16 5 4 12 8 10 8 11 -2 21 -7 10 2 3
-1 7 18 10 15 10 14 13 10 12 12 13 13 14 16 17 16 12 11 6 10 11 6 7 7 11 11 21 8 13 10 5 9 9 4 15 15 -0 8 17 17 3 5
11 6 11 18 15 1 11 1 10 8 2 12 13 8 6 10 15 19 16 17 11 10 14 10 12 7 18 16 11 15 12 7 11 8 3 20 -4 13 8 19 -6 3 5
0 -0 3 8 12 11 7 6 6 -0 1 7 6 8 15 12 7 3 5 5 11 13 13 18 12 19 9 18 10 19 32 6 -6 -3 15 15 19 26 7 -4 0 16 8
8 7 6 4 7 8 5 11 4 4 -3 3 0 8 3 5 11 14 17 12 11 12 11 10 19 17 -2 6 1 28 7 36 -11 18 40 -8 40 9 4 3 11 13 -0
26 12 7 7 18 20 19 10 10 12 5 2 1 6 5 6 4 6 6 11 13 12 8 17 28 8 31 -9 15 -13 5 21 9 27 3 8 22 1 1 22 12 4 17
15 18 23 26 11 16 17 18 17 14 16 14 8 1 13 8 8 7 5 5 3 9 13 -0 27 9 6 23 7 16 1 6 15 33 22 18 -11 -1 22 9 -3 20 10
7 6 10 17 9 17 10 13 22 16 18 16 18 11 9 13 12 12 9 4 5 11 6 12 23 13 9 2 17 2 4 29 46 41 21 14 8 17 8 14 10 10 10
8 7 7 8 7 4 14 12 -0 8 12 14 22 15 11 15 20 14 18 13 9 7 8 10 13 21 9 9 19 24 23 8 3 18 11 9 28 7 7 7 12 13 9
13 15 11 13 10 7 4 0 13 9 -1 14 18 19 14 13 17 20 21 20 10 10 11 7 14 18 9 6 14 17 23 -0 11 12 23 30 18 6 11 16 11 9 11
13 17 17 17 14 14 5 1 3 4 6 5 8 14 19 15 12 17 19 24 22 16 14 15 14 10 15 25 17 42 -4 9 12 30 18 5 13 17 13 10 10 11 9
17 16 10 14 15 15 21 8 7 0 10 10 10 11 20 20 14 15 15 15 17 16 18 15 14 11 7 44 -25 3 8 4 11 11 9 12 15 14 11 10 10 8 8
25 25 23 17 11 11 16 20 9 4 3 3 0 1 4 6 8 10 14 13 11 14 14 13 11 15 11 20 2 13 23 23 15 15 15 19 11 10 9 8 8 8 8
24 23 22 24 25 21 12 9 11 15 9 5 5 2 4 3 7 14 10 14 10 8 10 24 7 14 13 8 14 16 19 14 14 21 14 10 9 7 9 10 8 8 12
17 20 26 18 20 23 24 27 22 15 12 10 11 15 16 13 8 5 14 12 11 12 11 12 14 11 11 10 15 19 16 14 14 19 10 9 8 9 8 7 9 13 10
26 30 29 30 30 17 19 31 38 32 31 32 33 35 35 24 16 16 27 12 8 25 7 19 24 14 18 24 21 15 12 8 25 8 9 8 8 8 7 11 10 9 11
35 26 27 26 25 28 38 16 16 9 15 22 24 9 28 19 26 27 21 14 7 32 15 11 25 20 29 12 15 18 17 19 11 9 9 8 8 8 11 9 10 13 12
35 25 22 24 24 33 42 18 6 10 6 25 27 16 24 15 6 22 11 12 26 4 40 15 48 10 9 15 19 19 24 12 8 10 9 7 10 9 10 12 12 11 12
29 26 19 26 21 18 20 15 15 5 34 21 24 13 10 15 22 17 18 18 10 45 26 16 15 10 19 13 17 11 4 8 8 7 8 10 9 12 12 11 12 12 11
18 33 22 17 23 8 17 9 20 29 30 13 5 19 17 13 20 26 3 19 41 24 9 15 9 17 19 20 16 9 8 9 6 11 9 9 12 11 10 12 12 11 11
13 28 28 22 22 17 18 22 20 25 24 21 18 12 17 8 13 15 31 38 25 13 14 15 16 27 21 11 5 11 8 9 9 9 12 10 10 11 11 11 10 13 13
Height
3058 3062 3066 3069 3071 3074 3077 3080 3082 3085 3086 3088 3090 3092 3094 3095 3098 3099 3100 3101 3101 3103 3101 3101 3100 3102 3101 3102 3103 3103 3103 3103 3102 3100 3098 3097 3101 3100 3101 3098 3096 3094 3090
3051 3055 3058 3060 3062 3065 3068 3071 3074 3076 3079 3080 3081 3081 3083 3084 3086 3087 3089 3090 3089 3092 3091 3093 3090 3091 3091 3091 3091 3094 3093 3092 3091 3084 3083 3091 3090 3091 3092 3089 3086 3085 3083
3044 3047 3050 3053 3055 3057 3059 3061 3063 3065 3067 3069 3071 3070 3071 3074 3074 3075 3077 3078 3080 3080 3081 3079 3081 3081 3080 3079 3081 3082 3082 3082 3079 3067 3074 3082 3081 3081 3079 3081 3078 3076 3074
3036 3038 3039 3041 3044 3047 3048 3050 3051 3053 3055 3057 3060 3061 3060 3061 3064 3065 3066 3067 3068 3070 3069 3069 3070 3070 3070 3069 3070 3072 3072 3073 3071 3064 3070 3072 3073 3072 3072 3071 3069 3068 3065
3027 3028 3032 3035 3037 3036 3038 3040 3040 3042 3044 3044 3047 3049 3050 3049 3051 3053 3055 3056 3057 3058 3058 3058 3060 3060 3060 3060 3060 3062 3063 3063 3063 3063 3063 3064 3064 3063 3062 3062 3060 3058 3056
3019 3022 3024 3027 3028 3028 3029 3031 3032 3033 3033 3034 3034 3036 3038 3039 3040 3041 3043 3043 3045 3045 3045 3047 3048 3049 3049 3049 3050 3051 3053 3053 3053 3054 3054 3054 3054 3053 3052 3050 3049 3049 3046
3014 3016 3017 3017 3017 3018 3019 3021 3022 3024 3024 3025 3025 3025 3026 3027 3028 3028 3030 3031 3032 3033 3034 3035 3035 3036 3037 3037 3039 3040 3041 3042 3042 3042 3043 3043 3042 3041 3039 3040 3039 3038 3038
3005 3006 3007 3007 3007 3009 3010 3011 3011 3012 3013 3013 3014 3014 3015 3017 3017 3018 3019 3019 3020 3022 3023 3024 3024 3025 3024 3026 3027 3027 3029 3030 3031 3031 3031 3031 3032 3028 3029 3026 3029 3030 3030
2996 2995 2996 2997 2997 2998 2998 2999 3000 3000 3000 3001 3002 3003 3004 3006 3006 3007 3008 3008 3009 3010 3011 3012 3012 3015 3014 3015 3016 3016 3016 3017 3018 3019 3018 3019 3016 3014 3013 3017 3019 3018 3020
2984 2984 2984 2984 2985 2984 2985 2985 2985 2986 2987 2989 2991 2992 2992 2993 2994 2995 2996 2996 2997 2999 2999 3000 3000 3001 3004 3003 3004 3005 3005 3006 3004 3006 3008 3006 3005 3001 3006 3008 3010 3011 3009
2972 2972 2972 2971 2970 2969 2969 2970 2971 2972 2973 2976 2978 2979 2980 2981 2982 2983 2984 2984 2985 2986 2987 2987 2988 2990 2990 2991 2994 2994 2996 2995 2995 2993 2993 2992 2992 2994 2996 2998 3000 3003 3002
2958 2957 2957 2959 2958 2956 2956 2956 2956 2957 2958 2960 2962 2964 2966 2967 2968 2970 2971 2973 2975 2975 2976 2977 2977 2980 2981 2982 2983 2983 2985 2983 2986 2980 2973 2976 2983 2984 2991 2995 2996 2993 2997
2946 2946 2944 2943 2944 2946 2943 2943 2944 2945 2945 2946 2947 2950 2952 2953 2955 2956 2958 2960 2963 2965 2965 2965 2965 2968 2970 2971 2972 2972 2973 2973 2979 2976 2977 2978 2978 2981 2985 2990 2990 2987 2988
2931 2931 2930 2928 2929 2934 2931 2931 2931 2932 2934 2934 2934 2936 2937 2940 2943 2943 2944 2947 2950 2952 2953 2953 2955 2957 2960 2961 2961 2962 2966 2970 2972 2969 2972 2971 2976 2978 2979 2981 2983 2983 2983
2915 2914 2914 2914 2914 2915 2918 2919 2919 2920 2921 2923 2921 2924 2926 2928 2931 2932 2932 2934 2938 2941 2941 2942 2944 2947 2949 2951 2952 2955 2959 2962 2959 2961 2964 2965 2970 2973 2972 2975 2977 2979 2979
2901 2899 2898 2897 2898 2900 2901 2904 2905 2906 2907 2911 2911 2912 2915 2917 2920 2921 2922 2923 2925 2929 2930 2932 2935 2938 2940 2941 2942 2949 2951 2952 2953 2954 2957 2961 2965 2966 2966 2971 2974 2976 2975
2885 2884 2883 2882 2882 2883 2885 2886 2888 2893 2895 2898 2900 2901 2904 2907 2909 2910 2912 2912 2914 2917 2922 2923 2926 2929 2932 2934 2935 2937 2940 2942 2945 2950 2953 2957 2960 2960 2961 2965 2970 2971 2971
2869 2867 2864 2864 2865 2866 2868 2870 2873 2876 2880 2884 2887 2890 2893 2895 2898 2901 2902 2901 2904 2907 2912 2915 2917 2919 2923 2927 2932 2933 2937 2938 2940 2945 2950 2953 2955 2958 2960 2961 2964 2967 2967
2857 2853 2850 2847 2847 2849 2851 2853 2856 2859 2863 2868 2874 2877 2879 2883 2887 2890 2892 2893 2894 2897 2901 2906 2909 2910 2915 2919 2924 2929 2933 2935 2936 2941 2945 2947 2950 2955 2959 2961 2963 2962 2961
2847 2841 2836 2832 2831 2831 2833 2836 2839 2843 2848 2853 2856 2862 2866 2869 2872 2877 2882 2884 2885 2887 2890 2896 2901 2903 2906 2912 2917 2922 2925 2928 2932 2937 2941 2947 2949 2952 2956 2958 2958 2959 2959
2835 2827 2822 2819 2817 2818 2819 2821 2825 2829 2833 2838 2842 2845 2849 2854 2860 2866 2870 2873 2875 2879 2882 2885 2890 2888 2898 2904 2910 2915 2919 2924 2930 2934 2941 2946 2946 2950 2952 2954 2955 2957 2957
2826 2819 2813 2809 2807 2806 2808 2812 2816 2820 2824 2827 2830 2835 2838 2841 2847 2852 2857 2863 2866 2870 2873 2876 2883 2886 2892 2901 2906 2913 2917 2923 2927 2932 2938 2942 2946 2948 2950 2952 2953 2954 2954
2821 2814 2809 2805 2802 2800 2801 2806 2810 2814 2816 2819 2823 2827 2830 2833 2839 2843 2848 2854 2860 2866 2867 2868 2879 2885 2890 2897 2905 2912 2916 2919 2925 2932 2938 2942 2944 2947 2949 2950 2951 2952 2952
2820 2812 2806 2803 2801 2801 2802 2805 2806 2808 2809 2813 2817 2821 2825 2829 2833 2838 2844 2849 2853 2858 2860 2866 2876 2883 2890 2896 2903 2910 2914 2921 2926 2932 2938 2940 2942 2945 2947 2948 2951 2951 2952
2819 2810 2805 2803 2802 2801 2802 2802 2802 2802 2804 2809 2812 2817 2821 2826 2831 2836 2841 2844 2848 2854 2859 2867 2875 2883 2890 2897 2904 2912 2916 2922 2927 2933 2935 2938 2942 2943 2945 2948 2951 2951 2952
2821 2812 2806 2802 2801 2801 2801 2800 2800 2801 2804 2807 2811 2816 2821 2825 2829 2833 2837 2841 2848 2855 2862 2869 2876 2885 2891 2897 2904 2913 2919 2922 2928 2931 2935 2937 2941 2944 2946 2948 2949 2952 2954